GFSGBSN_925_temp_138.txt.gz
Temp
14 14 13 14 14 14 14 14 14 14 14 13 13 13 13 13 14 14 14 14 13 14 14 15 16 16 17 17 19 20 20 20 20 20 18 17 16 16 16 15 15 17 17 16 16 15 15
14 13 13 13 14 13 14 14 13 13 13 13 13 13 13 13 13 13 13 13 13 13 13 14 15 16 15 17 19 20 20 20 20 19 19 18 17 17 16 16 16 15 15 14 15 16 16
12 12 13 13 13 13 13 13 13 14 13 13 13 13 13 12 12 13 13 13 13 13 13 13 13 14 13 16 19 19 19 19 19 19 18 19 18 17 16 15 15 16 15 15 18 16 17
12 12 11 12 13 12 13 14 13 13 13 13 13 13 13 13 12 12 12 12 12 13 13 12 13 13 14 18 19 19 19 19 19 19 19 19 18 17 16 15 14 15 14 15 17 16 18
9 10 11 10 11 11 11 12 13 13 12 12 13 13 13 12 12 12 12 12 12 12 12 13 13 12 15 18 18 20 19 19 19 19 19 18 18 14 14 14 14 13 15 16 15 16 18
9 9 9 9 9 10 11 11 12 13 12 12 12 12 12 12 12 12 12 12 13 12 12 12 11 12 16 18 19 19 19 19 19 18 17 15 12 13 12 13 14 15 15 15 15 16 15
9 9 9 9 9 9 10 11 11 12 12 12 12 12 12 12 12 11 11 13 12 11 11 14 15 15 17 18 19 19 19 18 17 17 16 14 14 14 15 14 15 15 14 13 13 15 16
9 9 9 9 8 8 8 10 10 10 11 12 12 12 12 12 11 11 11 11 12 11 11 13 13 13 15 16 16 17 19 17 17 16 15 13 13 15 15 15 14 14 13 12 14 14 15
8 8 8 8 8 8 8 8 9 10 10 11 12 11 11 11 11 10 11 12 12 12 10 12 12 13 14 15 14 15 16 16 16 15 14 14 15 15 15 14 14 13 13 13 14 16 15
8 7 7 8 8 7 7 7 8 8 9 10 11 10 10 11 10 10 11 12 12 12 10 13 13 14 15 15 16 16 16 17 15 15 14 14 15 16 15 14 15 14 15 15 15 14 12
7 7 7 7 7 7 7 7 7 7 8 9 10 9 11 10 11 10 12 12 12 12 11 16 15 17 16 16 16 16 17 17 14 15 15 15 15 15 14 14 15 14 17 15 15 14 13
8 7 7 7 7 7 7 7 7 7 8 9 9 9 10 9 10 11 11 12 12 9 10 15 16 16 16 16 16 16 16 16 15 15 14 13 14 15 14 15 14 15 16 14 11 11 10
8 8 7 7 7 7 7 7 7 7 7 8 9 9 9 9 10 11 11 10 9 7 14 15 15 16 15 15 15 16 15 15 13 14 13 13 14 14 15 15 15 15 13 11 11 10 12
7 7 8 7 7 7 7 7 7 7 7 8 8 9 8 8 10 10 11 10 8 12 12 14 15 14 15 15 15 14 14 13 14 13 11 11 12 15 16 16 15 15 13 11 12 10 11
7 7 7 7 7 7 7 7 7 7 7 7 7 7 7 8 9 10 9 10 9 10 13 14 14 14 13 14 13 14 13 12 13 13 12 11 12 14 15 16 16 15 13 14 12 12 8
7 7 7 7 7 7 7 7 7 7 7 6 7 7 7 7 9 10 8 10 9 11 12 13 13 13 12 13 13 13 13 14 14 13 13 13 10 13 14 15 16 15 14 11 8 11 12
7 7 7 7 6 6 7 6 7 7 6 6 7 5 6 7 9 7 9 9 9 11 12 12 12 12 12 11 12 12 13 14 13 13 12 12 8 12 13 14 13 12 12 12 11 11 10
6 7 6 6 6 6 6 6 7 7 7 6 5 3 5 8 6 5 7 8 9 10 11 12 12 12 11 10 11 8 11 13 13 14 13 13 9 9 12 13 12 12 12 11 9 10 10
6 6 6 6 6 6 6 6 6 7 7 6 3 4 5 6 7 7 6 7 9 9 10 11 11 11 9 8 8 9 11 12 12 13 12 12 10 9 11 12 12 11 11 10 9 8 8
6 6 6 6 6 6 6 6 6 7 6 7 3 5 4 5 4 6 6 7 7 9 9 9 10 11 10 10 9 9 10 11 12 12 12 11 9 10 9 9 10 9 11 11 11 8 7
5 5 5 5 6 6 6 6 6 6 6 7 2 3 5 5 5 5 6 7 7 7 8 8 9 9 9 8 9 8 8 10 11 12 11 10 7 8 9 9 9 10 9 9 10 10 9
4 4 4 5 5 5 5 6 6 6 6 5 3 3 4 4 7 7 6 5 6 7 8 8 8 9 8 7 8 9 9 9 9 10 10 8 5 5 5 9 8 8 7 8 9 9 9
4 3 3 5 5 5 5 5 5 6 5 5 4 4 4 5 5 6 7 6 6 7 8 8 8 7 8 7 7 8 8 8 9 10 8 8 7 5 8 9 8 8 6 8 9 9 10
4 4 4 5 5 5 5 5 5 5 5 4 4 4 3 2 5 6 6 7 6 6 7 7 7 6 7 7 8 8 7 7 7 7 8 7 7 7 8 8 7 7 9 9 9 10 9
4 4 4 4 4 4 4 5 5 5 5 5 4 4 4 3 4 5 5 6 6 6 6 6 6 7 6 7 7 7 7 8 8 7 7 8 7 7 8 8 9 9 10 9 9 10 9
3 4 4 4 4 4 4 4 4 4 4 4 4 4 4 4 4 6 5 5 4 3 4 5 6 7 6 5 4 7 7 8 8 9 8 7 7 7 6 7 8 9 9 8 9 8 7
3 3 3 3 4 3 4 4 4 4 4 3 4 4 3 4 4 5 4 4 4 4 4 5 6 5 6 5 5 7 7 8 7 8 8 7 6 6 7 8 8 9 8 8 8 8 6
2 3 2 3 3 3 3 3 4 4 4 3 3 4 3 2 4 6 6 4 4 4 4 5 4 4 4 6 4 5 5 6 7 8 8 8 7 7 8 8 8 7 7 8 6 3 4
2 2 2 2 2 2 2 3 3 3 4 3 3 3 3 2 3 4 4 5 6 7 4 4 5 5 5 5 4 4 5 4 6 4 8 7 7 8 8 7 5 5 4 4 4 4 2

GFSGBSN_925_temp_141.txt.gz
Temp
14 14 14 13 13 13 14 14 14 14 14 14 14 13 13 13 13 14 14 14 14 14 14 14 15 15 17 17 19 19 19 20 19 20 18 18 18 17 18 17 17 18 18 18 19 18 17
14 13 14 14 14 13 13 14 14 13 13 13 13 13 13 13 13 13 14 13 14 14 14 14 14 15 15 17 19 19 19 19 19 19 18 18 18 17 17 17 17 16 17 17 17 18 17
13 14 14 13 13 13 13 13 14 14 14 14 13 13 13 13 13 13 13 13 13 13 13 13 14 13 13 17 19 19 19 19 19 19 18 18 18 18 17 17 16 16 18 18 18 18 18
11 11 12 12 12 13 13 13 12 13 13 14 14 13 13 13 13 13 13 13 13 13 13 13 13 13 14 18 18 19 19 19 19 19 19 18 18 17 17 16 16 17 16 19 19 19 18
10 11 10 11 11 11 12 12 12 12 12 13 13 12 12 13 12 12 12 12 13 13 12 13 13 13 16 18 18 19 19 19 19 18 18 18 17 15 16 16 17 16 19 17 19 18 19
9 10 9 10 10 10 11 11 12 12 12 12 12 12 13 13 12 12 12 12 13 13 12 12 11 13 16 19 19 19 19 18 18 17 17 17 15 16 15 18 19 17 17 16 17 18 18
9 9 9 9 9 9 9 10 11 11 11 12 12 12 12 12 12 12 12 13 13 12 11 15 16 15 17 18 18 18 18 18 17 18 17 15 17 17 16 16 16 16 15 15 16 17 16
9 9 9 9 9 9 9 9 9 10 10 11 11 11 12 12 12 11 12 12 13 13 13 13 13 13 15 15 16 17 18 18 17 17 15 16 16 16 16 15 15 15 15 15 16 17 16
8 9 9 9 9 9 8 8 8 8 9 10 11 11 11 12 11 11 11 12 13 13 12 13 13 14 15 15 15 16 17 16 17 16 16 16 17 16 16 15 15 15 15 15 16 16 16
8 8 8 8 8 8 8 8 8 8 8 9 10 10 10 11 11 11 11 12 12 12 12 13 14 15 15 15 16 16 16 17 16 16 15 15 16 16 16 16 16 15 16 16 16 16 16
8 8 8 8 8 8 8 8 7 8 8 9 9 10 10 11 12 10 12 12 12 12 13 15 14 16 15 16 16 16 16 17 15 15 16 16 15 15 15 16 15 16 16 16 16 15 15
8 8 8 8 7 7 8 7 7 7 7 8 9 8 10 10 10 11 12 12 12 12 12 15 15 15 15 16 16 16 16 16 15 15 14 14 14 15 16 15 15 16 16 15 13 14 15
8 8 8 8 8 7 8 7 7 7 7 8 8 9 9 9 10 11 11 11 11 11 14 14 15 15 15 15 15 15 15 15 15 15 14 14 14 15 15 16 15 16 15 15 15 14 15
8 8 8 8 8 7 7 7 7 7 7 7 7 9 9 10 11 10 11 11 10 12 12 14 15 14 15 15 14 14 14 14 13 14 13 14 15 15 16 16 16 15 15 15 13 14 15
7 8 8 7 8 7 7 7 7 7 7 6 7 7 8 8 9 10 10 11 12 11 13 13 14 14 14 14 14 14 14 13 14 14 14 13 14 14 15 16 16 15 15 16 14 14 12
7 7 7 7 7 7 7 7 7 7 7 6 7 7 6 8 9 10 9 11 10 11 11 12 13 13 13 13 13 14 13 14 13 13 13 13 13 13 14 15 15 16 16 14 13 12 13
7 7 7 7 7 7 7 7 7 6 7 6 7 7 6 7 9 7 9 10 10 11 11 12 12 12 12 12 12 13 13 14 13 13 13 13 11 13 14 15 14 14 14 13 13 13 12
6 7 7 7 7 7 7 7 7 6 7 7 5 6 5 6 7 6 7 9 10 10 11 12 12 12 11 11 12 9 12 13 13 13 13 13 11 12 13 14 13 13 13 13 12 12 10
6 7 6 7 7 7 7 7 7 7 6 6 4 4 5 6 8 7 6 8 9 10 10 11 11 11 9 10 10 10 11 12 12 13 13 12 12 11 13 13 13 13 12 11 10 10 10
6 6 6 6 6 6 7 6 7 7 6 7 4 5 5 5 5 8 8 7 8 8 9 9 10 10 10 10 9 9 10 11 11 12 12 12 11 12 11 12 12 11 12 12 12 10 11
5 5 6 6 6 6 6 7 6 6 6 7 3 4 5 6 6 6 8 8 8 8 8 9 9 10 10 9 9 9 9 10 11 12 11 11 10 10 11 11 11 11 11 11 11 11 10
4 4 5 6 6 6 6 6 7 6 6 6 3 4 5 5 6 7 7 7 7 8 8 8 8 9 9 9 10 9 9 10 10 10 10 9 10 7 7 10 10 10 8 9 10 10 10
5 4 4 5 5 5 6 6 6 6 5 5 3 4 6 6 7 7 7 6 7 8 8 9 8 8 8 8 8 9 9 9 10 10 9 10 9 9 9 10 10 10 8 8 10 10 11
4 4 4 4 4 5 5 5 6 6 6 4 4 4 5 5 6 7 7 7 7 7 8 7 7 8 8 8 8 8 8 8 8 8 9 9 9 9 9 9 8 11 10 11 10 11 11
4 4 3 4 4 4 4 5 5 5 5 5 4 4 4 4 6 6 6 6 6 7 7 7 7 7 6 8 8 8 8 8 9 8 8 9 9 9 8 10 11 11 12 11 10 11 12
4 4 3 3 2 3 4 4 4 4 4 4 4 3 4 5 5 6 6 6 5 5 5 6 6 6 7 6 7 7 8 9 9 10 8 8 9 8 7 8 9 11 10 9 10 11 8
3 3 3 2 3 3 4 4 4 4 4 3 3 3 2 4 4 5 5 5 5 5 6 5 5 5 6 5 6 7 8 9 9 9 9 8 7 8 8 8 10 11 9 9 9 10 7
1 2 3 3 3 4 4 4 4 4 4 3 3 4 3 3 4 4 5 5 4 5 6 6 6 5 5 7 7 7 7 8 8 9 10 10 9 8 8 8 8 8 8 9 8 6 5
2 2 3 3 3 3 4 4 4 4 4 2 2 3 4 3 3 3 4 4 5 6 5 4 6 6 6 7 6 6 7 6 8 8 9 9 10 10 10 10 8 7 8 7 6 6 5

GFSGBSN_925_temp_144.txt.gz
Temp
14 14 14 14 14 14 14 14 14 14 14 13 13 13 13 14 14 14 15 15 15 15 14 15 15 16 17 22 23 20 20 20 20 21 22 23 24 23 24 23 23 24 23 23 24 23 23
14 14 14 14 14 13 14 13 13 13 14 13 13 13 13 13 13 13 14 15 15 14 14 14 14 15 17 21 19 19 19 20 20 21 22 22 22 22 22 22 23 22 22 23 23 24 23
14 14 14 14 13 14 14 13 13 13 13 13 13 13 13 13 13 13 14 14 14 15 14 14 14 13 17 21 19 19 19 20 20 20 22 21 21 22 22 22 21 21 22 23 23 23 23
13 12 13 13 12 13 13 12 13 12 13 13 13 13 12 13 13 13 13 14 13 13 14 14 14 13 19 18 18 18 19 20 19 20 20 20 20 21 21 21 22 22 22 25 23 23 21
11 11 11 11 11 11 11 11 12 12 12 13 13 13 13 12 12 13 13 13 13 12 13 14 14 15 20 18 19 19 20 21 20 20 19 19 20 21 21 22 23 22 25 23 24 23 23
10 11 10 10 11 11 11 11 11 12 11 12 13 13 12 12 12 12 12 13 13 13 12 12 13 16 20 21 20 19 19 20 21 21 21 21 22 22 22 23 24 24 23 23 23 23 23
10 10 9 10 10 10 10 10 10 11 10 11 13 13 11 12 12 12 12 12 15 18 15 19 20 20 21 20 19 20 20 20 21 21 21 20 21 23 22 20 20 20 20 21 22 23 21
9 9 9 9 9 9 9 9 9 10 10 11 11 12 11 12 12 12 11 15 16 14 17 18 18 19 18 18 19 20 20 20 20 21 20 21 22 21 20 19 19 20 20 21 21 21 20
9 9 10 9 9 9 9 9 9 9 9 9 11 11 11 11 11 11 12 14 13 13 16 18 18 18 19 18 19 20 20 20 20 20 20 20 21 19 19 19 19 20 20 20 20 20 21
9 9 9 9 9 9 9 8 9 8 8 9 10 10 10 11 11 11 12 13 13 13 16 19 17 18 17 18 18 19 19 20 19 20 19 20 19 19 19 19 19 19 20 19 19 20 21
8 8 8 9 9 8 8 8 8 8 8 8 9 9 10 11 12 13 13 13 13 13 16 19 17 18 18 18 19 18 18 19 19 19 19 19 19 18 18 19 19 19 19 19 19 20 19
8 8 9 9 9 8 8 8 8 8 7 8 8 9 9 10 10 11 12 12 13 14 15 17 18 17 17 18 19 19 19 19 19 18 18 19 18 18 19 18 18 19 19 19 19 20 19
8 8 8 9 9 8 7 7 7 7 7 7 8 8 9 10 12 12 12 13 13 14 17 17 17 18 19 18 18 18 18 18 19 18 18 18 18 18 18 19 19 20 19 19 19 18 19
7 7 8 8 8 8 7 7 7 7 7 7 7 8 8 9 11 11 11 13 12 17 17 16 17 18 18 17 17 17 18 18 18 18 18 18 17 18 19 19 18 18 18 17 16 17 18
7 7 7 8 8 8 8 7 7 7 7 7 7 7 8 9 9 10 12 12 14 16 16 16 16 17 16 16 17 17 18 18 18 18 17 17 17 18 18 18 18 18 18 18 16 17 16
7 7 7 7 8 8 8 7 7 7 7 7 7 7 7 7 8 9 10 13 14 14 14 14 16 16 16 16 17 17 17 17 16 16 17 17 15 17 17 18 18 18 18 16 17 13 15
6 6 7 7 7 7 7 7 7 7 7 7 7 8 5 7 7 9 10 14 14 14 14 14 15 15 16 15 17 17 17 16 16 16 17 17 15 17 17 17 18 17 17 16 16 17 15
5 6 6 7 7 7 7 7 7 7 7 7 6 9 5 7 7 8 10 14 12 13 14 14 14 14 15 14 15 13 15 16 16 16 16 16 16 16 17 18 17 16 16 16 14 15 15
5 5 6 6 7 7 7 7 7 7 6 6 7 6 5 6 8 8 7 10 12 13 13 13 13 13 13 13 12 14 14 14 15 16 16 15 15 14 16 16 15 16 15 15 15 13 13
5 5 6 6 6 7 7 7 7 7 6 8 7 6 6 6 7 9 8 9 11 11 11 12 13 13 13 13 13 13 13 14 14 15 13 14 14 14 14 15 15 14 15 15 15 12 13
4 4 5 6 5 6 6 7 7 7 6 8 8 8 10 7 7 8 10 10 11 10 11 12 12 13 13 12 13 13 14 14 14 13 14 14 12 13 14 14 14 14 13 14 14 14 13
4 4 5 5 6 5 5 6 7 6 6 6 5 8 8 11 11 10 10 11 11 11 11 11 11 12 13 13 13 12 13 13 13 13 13 13 11 10 10 13 13 12 12 13 13 13 13
3 4 5 5 5 6 5 6 6 6 6 5 6 7 11 9 10 10 11 11 11 11 10 11 11 11 11 13 12 12 13 13 13 13 12 12 12 11 12 14 13 12 11 11 13 14 14
2 3 4 5 5 6 5 6 6 6 5 5 6 9 9 8 10 10 11 11 10 10 10 10 10 11 11 11 11 11 11 11 12 12 13 12 12 12 12 12 10 14 14 15 14 15 15
2 3 4 4 5 5 6 6 6 6 6 5 5 7 10 8 9 9 9 9 10 10 10 10 9 11 11 11 11 11 11 11 12 12 12 12 12 11 11 12 14 14 15 14 14 14 15
1 4 4 5 3 4 5 5 6 5 5 5 5 5 7 9 9 9 8 9 9 9 8 9 9 10 10 10 10 10 11 12 12 11 11 12 12 11 11 10 11 14 15 14 14 12 12
2 4 4 4 4 4 4 5 5 5 4 4 4 4 3 6 8 9 9 8 9 9 10 9 8 8 10 9 9 10 11 12 11 12 10 10 10 10 11 11 13 15 13 13 11 12 11
3 4 4 4 4 4 4 4 4 4 4 4 3 3 3 4 5 7 8 8 8 9 9 8 8 7 8 9 10 10 10 11 11 13 13 12 11 10 11 10 10 13 11 11 12 11 10
1 2 4 4 3 4 3 3 3 3 3 4 3 3 5 4 3 4 5 6 7 10 10 9 9 10 10 10 11 11 10 11 11 10 13 11 13 13 13 13 14 13 13 13 12 12 11

GFSGBSN_925_temp_147.txt.gz
Temp
14 14 14 14 14 14 14 14 14 14 14 14 14 14 13 14 14 14 14 14 15 15 15 15 16 17 18 24 26 21 21 21 22 24 25 27 27 27 27 27 27 27 27 27 27 27 26
14 14 14 15 14 14 14 14 14 14 14 13 13 13 13 13 13 13 14 14 14 14 15 15 15 16 20 22 23 22 22 22 23 24 25 25 26 26 27 26 26 26 26 27 28 27 27
14 14 14 14 14 14 14 13 13 13 13 13 13 13 13 13 13 13 14 14 14 14 14 14 15 15 20 23 22 22 21 23 22 23 24 23 24 25 26 26 25 25 25 28 27 27 27
13 13 13 13 13 14 13 13 13 13 13 12 13 13 13 13 13 13 13 13 13 14 14 14 15 15 20 22 22 21 22 23 22 22 23 22 23 24 24 26 25 25 27 27 28 26 25
11 11 11 11 12 12 12 12 12 12 13 13 13 13 13 13 13 12 13 13 13 13 14 13 15 18 22 21 22 23 23 24 23 23 22 21 23 25 25 25 26 27 26 28 28 27 26
11 11 11 11 11 11 11 11 12 11 12 12 12 13 13 12 12 12 12 13 13 13 14 15 17 19 22 24 23 23 22 23 23 24 24 24 25 24 26 26 26 26 26 27 27 27 25
10 10 10 10 10 10 11 11 10 11 11 11 11 12 13 11 12 12 12 13 15 18 18 21 23 23 24 23 22 23 23 23 23 23 23 25 23 25 27 25 24 24 24 25 26 27 25
10 10 10 10 10 10 10 10 10 10 10 10 11 11 12 11 12 12 12 14 17 17 18 21 22 22 22 22 21 23 22 22 23 22 25 23 23 26 24 23 22 23 23 24 26 25 23
10 10 9 10 10 10 9 9 9 9 9 9 10 11 11 11 11 11 14 15 16 16 18 20 22 22 23 22 21 23 23 23 22 23 23 23 25 23 22 23 22 23 23 23 23 24 24
9 9 9 9 9 9 9 9 9 9 9 9 9 10 11 11 11 14 14 15 14 15 18 21 20 21 20 21 21 23 22 23 23 22 23 23 24 22 22 22 23 22 23 22 22 22 22
8 9 9 9 9 9 9 8 8 8 9 9 9 9 10 11 13 14 16 14 14 16 14 22 20 20 21 20 21 21 21 22 22 22 22 23 22 21 21 23 22 22 21 22 22 22 22
8 8 8 9 9 9 9 8 8 8 8 8 8 8 9 10 11 13 13 13 15 16 15 20 20 19 19 20 21 21 21 22 23 22 22 23 22 21 22 21 21 21 21 22 22 22 20
8 8 8 8 8 9 9 8 8 8 8 8 8 8 8 9 12 12 11 14 14 15 20 20 19 20 20 19 20 20 20 20 21 20 20 22 21 22 21 21 21 21 22 20 21 21 21
7 7 8 8 8 8 8 8 8 8 8 8 7 7 8 9 10 11 12 13 13 19 20 20 20 20 19 20 20 19 19 20 21 21 22 21 20 21 21 21 21 21 20 19 18 19 20
7 7 7 7 8 8 8 8 8 7 7 7 7 7 7 8 9 10 13 12 16 18 20 20 19 19 19 19 19 19 20 20 22 21 20 20 20 21 21 21 21 21 19 21 18 19 18
6 7 7 7 7 7 8 8 8 7 7 7 7 7 7 8 7 9 10 13 17 18 18 17 18 19 18 18 17 18 19 21 20 20 20 20 18 20 20 20 20 19 21 18 18 15 16
5 6 6 7 7 7 7 8 7 7 7 7 7 8 7 7 8 7 9 13 17 17 17 17 18 18 18 18 18 18 20 19 19 18 20 20 17 19 19 19 19 20 19 19 19 18 16
5 5 6 6 6 7 7 7 7 7 7 7 7 9 6 7 8 7 9 13 14 17 16 16 17 18 18 18 17 18 18 19 19 19 18 19 18 17 19 21 21 19 18 19 17 16 18
4 4 5 6 6 6 7 7 7 7 7 7 7 8 5 6 8 9 11 12 13 15 16 16 16 16 16 16 14 17 18 17 18 18 18 18 17 16 18 19 18 17 18 18 17 17 14
3 4 4 5 6 6 6 6 7 7 7 7 6 7 6 6 10 12 12 12 12 15 16 15 15 15 15 15 16 16 16 15 16 18 14 15 17 16 16 17 18 17 18 18 17 14 14
3 3 3 4 5 6 6 6 7 7 7 6 7 9 11 7 7 9 13 13 12 13 15 15 14 15 15 14 16 16 16 16 16 12 16 16 14 16 16 17 17 16 16 16 16 16 15
3 3 3 4 5 5 5 6 6 7 6 5 8 12 14 14 11 9 9 10 11 13 14 13 14 15 15 15 16 15 16 16 16 16 15 16 13 12 12 14 15 14 14 15 15 15 15
3 3 3 3 4 4 5 6 5 7 6 5 10 12 11 13 12 9 9 11 12 12 12 13 14 15 14 15 17 16 17 17 16 15 15 15 14 13 13 16 16 14 13 13 15 16 16
2 2 2 3 3 4 4 5 5 5 6 6 9 12 12 12 13 12 12 12 10 9 10 12 13 13 14 14 14 14 14 14 14 15 15 14 14 14 13 14 12 15 17 17 16 17 18
2 2 2 3 3 4 4 5 5 5 6 5 8 11 12 11 13 13 13 13 12 13 12 13 13 14 14 13 13 12 13 13 13 14 14 14 14 13 12 14 15 16 17 17 16 15 17
1 1 2 2 2 4 5 5 4 5 5 6 7 8 11 11 12 13 12 12 11 11 11 11 12 12 12 13 12 12 13 14 14 14 15 14 14 13 12 12 12 16 17 17 16 14 15
2 1 1 1 2 4 4 4 5 5 5 5 5 6 8 9 12 11 9 9 10 9 11 11 11 10 12 12 11 12 13 15 13 13 12 12 13 12 12 12 14 17 16 16 12 13 13
1 1 1 2 2 4 5 5 5 5 5 4 4 5 6 5 8 10 11 11 11 12 11 12 10 11 11 10 12 13 13 14 14 15 15 14 13 12 13 12 12 17 15 13 15 15 14
1 0 0 2 3 5 4 4 4 5 4 4 4 5 5 5 5 6 8 9 11 12 12 11 12 12 12 12 13 14 13 14 14 12 16 14 15 14 15 14 15 15 15 16 16 15 14

GFSGBSN_925_temp_150.txt.gz
Temp
14 14 14 15 15 15 14 14 14 14 14 14 14 14 14 13 13 13 14 14 14 14 15 16 16 17 18 24 25 23 23 23 23 25 27 27 27 27 27 28 28 28 29 28 29 28 27
14 14 14 14 14 14 14 14 14 14 14 14 14 13 13 13 13 13 13 14 13 13 14 15 16 16 18 21 25 24 23 24 25 25 26 26 26 26 26 27 27 28 27 28 28 29 28
14 14 14 14 14 14 14 14 14 13 13 13 13 13 13 13 13 13 14 13 14 13 14 14 15 13 18 21 24 24 23 24 24 25 26 25 25 25 26 26 27 26 26 27 29 28 27
13 12 13 14 14 14 14 14 14 13 13 13 13 13 13 14 14 13 13 13 13 13 14 14 14 13 19 23 24 24 24 24 24 24 24 24 24 25 25 27 26 26 26 26 29 28 26
11 11 11 11 12 13 13 12 13 13 13 12 13 13 13 13 14 14 13 13 13 13 14 14 14 16 20 22 23 24 24 25 25 24 24 23 24 24 26 25 25 27 25 27 27 28 27
11 11 11 11 11 11 11 11 11 11 12 12 12 12 12 13 13 13 12 12 14 13 15 15 16 19 21 23 25 24 24 24 25 25 24 25 25 24 25 26 25 26 27 27 27 28 27
10 10 10 10 11 10 11 11 11 11 11 11 11 11 12 12 13 12 12 14 16 18 17 19 22 21 25 25 23 24 24 24 24 24 23 25 24 24 26 27 26 25 25 25 27 28 27
10 10 10 10 10 10 10 10 10 10 11 11 11 11 11 12 12 12 12 16 18 17 16 20 21 23 23 24 23 24 25 23 23 22 24 24 24 25 26 25 24 24 24 24 26 27 26
10 10 10 10 10 10 10 10 10 10 10 10 10 10 11 11 11 12 13 16 17 17 17 19 21 22 23 23 23 23 25 23 23 23 24 23 25 26 24 24 24 24 23 24 24 25 25
9 9 9 10 10 10 10 10 9 9 9 9 9 9 10 11 11 13 14 16 17 15 16 20 22 22 23 24 22 24 24 24 23 22 23 23 25 25 24 23 24 23 25 24 23 23 21
8 8 9 9 9 10 10 9 9 9 9 9 9 9 10 10 12 15 14 16 15 16 15 24 23 22 23 22 22 22 24 24 22 22 23 23 24 23 22 23 24 23 24 22 22 22 22
8 8 8 8 9 9 9 9 9 9 8 8 9 9 9 9 10 13 14 14 15 14 14 21 21 20 20 20 21 22 21 22 23 22 24 23 25 23 23 24 22 23 22 22 22 22 20
7 8 8 8 8 8 9 9 8 8 8 8 8 8 8 9 12 13 13 14 12 13 21 21 20 20 20 20 20 21 20 20 20 19 20 22 23 23 23 21 23 22 20 19 20 20 20
7 7 7 8 8 8 8 8 8 8 8 8 8 8 8 8 10 11 12 13 12 17 18 22 21 21 19 21 20 20 20 19 21 22 21 21 20 23 22 21 22 22 22 19 18 18 19
6 6 7 7 8 8 8 8 8 8 8 8 7 7 8 8 9 10 11 11 15 17 20 20 20 19 19 21 20 20 20 20 22 22 20 20 21 22 22 22 21 21 20 21 19 19 17
5 5 6 7 7 7 7 8 8 8 8 7 8 8 8 8 8 9 9 12 16 19 20 20 19 20 18 20 19 19 19 21 21 22 22 20 18 22 22 21 21 20 22 18 19 15 16
4 4 5 6 7 7 7 7 7 7 7 7 7 8 10 8 8 8 9 11 15 18 19 18 18 19 19 19 19 19 20 21 21 20 20 20 17 19 21 19 19 20 19 19 19 18 16
4 4 5 5 6 6 7 7 7 7 7 7 8 8 8 7 8 7 8 13 14 15 17 17 18 18 18 18 18 18 19 20 21 20 18 19 18 17 19 21 21 21 19 19 16 16 17
4 4 4 4 5 6 6 7 7 7 7 7 8 8 7 7 8 8 11 11 13 15 15 16 17 18 19 17 16 18 19 19 20 19 18 19 17 16 17 19 20 19 19 19 19 17 15
3 4 4 4 4 5 6 6 6 6 7 7 8 7 6 6 9 11 11 12 12 14 14 16 17 18 16 16 18 17 18 17 18 19 14 17 17 17 16 17 18 17 18 19 18 14 15
3 3 3 4 4 4 5 5 6 6 6 7 7 7 8 7 7 10 12 13 12 11 15 16 14 15 15 15 16 17 17 17 16 14 17 17 15 16 17 18 17 17 17 17 17 17 15
3 3 3 3 4 4 4 5 5 6 6 5 6 10 11 11 11 9 10 11 12 14 12 10 14 15 16 16 16 16 17 17 16 16 16 17 14 13 12 15 16 15 15 16 16 16 15
3 3 3 3 3 3 4 4 5 5 5 5 6 10 11 10 12 9 9 11 13 14 14 12 12 14 15 17 18 18 18 17 18 17 16 15 15 14 13 16 16 15 13 13 16 16 16
2 3 3 3 3 3 3 4 5 5 5 5 7 9 10 10 12 11 12 11 10 10 12 9 11 12 13 16 15 15 15 15 16 16 16 15 15 14 13 14 12 15 18 18 17 17 18
2 2 2 2 3 3 3 3 4 4 5 5 6 9 10 10 13 13 12 13 14 10 7 9 11 13 13 15 13 13 13 13 14 15 15 15 14 13 12 13 15 16 17 17 16 16 17
2 2 2 2 2 3 3 3 3 4 5 4 5 8 10 11 12 14 14 13 10 7 7 9 12 14 14 13 12 12 12 13 13 14 16 15 14 12 12 11 12 15 18 18 17 14 16
2 2 2 2 2 2 2 3 3 4 5 4 5 7 9 9 12 12 12 12 12 9 9 11 11 11 12 11 11 12 12 15 13 14 12 13 13 11 11 12 13 16 18 17 13 13 14
2 2 2 2 2 2 2 3 3 4 4 4 5 7 8 8 10 11 12 11 11 11 11 11 10 11 11 11 11 12 12 14 14 15 15 13 12 12 12 12 11 17 16 14 15 16 16
1 2 2 2 1 1 1 2 3 4 4 4 5 5 6 6 5 6 10 11 12 12 10 10 11 12 12 11 12 13 13 14 14 12 16 13 15 13 14 14 14 15 13 14 16 16 15

GFSGBSN_925_temp_153.txt.gz
Temp
14 14 14 14 14 14 14 14 14 14 14 14 14 14 14 14 13 13 13 13 14 14 15 15 15 16 16 18 20 24 23 23 24 25 25 24 23 22 22 23 24 25 25 26 27 27 26
14 14 14 14 14 14 14 14 14 14 14 14 14 14 14 14 14 13 14 14 14 14 14 15 14 14 16 17 23 24 23 23 24 25 25 24 23 23 22 23 23 25 24 23 24 24 25
14 14 14 14 14 14 14 14 14 14 14 14 14 13 13 13 13 14 14 15 14 14 14 14 14 12 14 16 22 24 23 24 24 24 23 24 24 21 21 22 24 24 23 22 23 24 25
12 13 13 14 14 14 13 13 14 14 13 13 13 13 13 14 14 14 14 15 15 14 15 14 14 12 14 20 21 22 24 24 24 24 24 24 24 22 23 23 23 23 22 21 23 24 23
11 11 12 12 12 14 13 13 13 13 13 13 13 12 13 14 14 14 14 15 16 15 14 14 14 13 16 21 22 23 24 23 24 24 24 24 23 22 22 21 19 21 20 21 24 23 22
10 10 10 11 11 11 11 11 11 11 12 12 12 12 12 12 13 14 15 15 17 14 15 14 13 15 17 21 23 24 24 24 24 24 23 22 20 20 19 19 18 21 22 21 22 24 22
10 10 10 10 11 10 10 10 10 10 11 11 12 12 12 12 12 13 14 15 15 14 13 16 18 18 20 23 24 24 24 24 23 22 19 20 19 18 20 21 23 23 22 21 21 23 24
10 10 10 10 10 10 10 10 10 10 10 11 11 11 11 11 12 13 12 13 16 16 14 17 18 19 20 21 21 23 24 21 21 19 20 19 19 22 24 24 23 22 21 20 21 23 23
10 10 10 9 10 10 10 10 10 10 10 10 10 10 10 11 11 12 12 14 16 16 14 16 18 18 19 21 20 21 22 21 21 20 20 19 21 24 24 23 22 22 21 20 21 22 22
9 9 9 9 10 10 10 10 10 9 9 9 9 10 10 11 10 12 12 15 15 16 11 16 20 20 20 21 20 22 23 22 20 20 21 20 22 23 23 22 22 20 22 22 21 19 18
8 8 9 9 9 9 10 10 10 9 9 9 9 9 9 10 9 11 13 14 15 15 11 20 20 22 22 20 21 22 23 22 20 20 21 20 21 21 21 22 23 21 21 21 20 18 18
7 8 8 8 9 9 9 9 9 9 8 9 9 9 9 9 10 12 12 14 15 11 12 18 20 20 20 20 21 21 21 21 22 21 21 20 22 22 22 23 22 21 20 19 19 17 13
7 7 7 8 8 8 8 9 9 9 8 8 9 8 8 9 10 11 12 13 11 10 18 20 19 19 19 18 19 19 19 18 17 17 17 20 20 21 22 21 21 20 19 14 14 13 15
6 6 7 7 8 8 8 8 9 8 8 8 8 8 8 9 10 10 12 11 10 15 16 20 20 19 17 18 18 18 18 17 18 18 18 18 17 21 21 20 20 19 18 14 16 13 15
5 5 6 7 7 7 8 8 8 8 8 8 7 8 7 8 9 8 9 10 11 14 17 18 19 18 17 18 19 18 17 17 19 19 17 18 19 21 21 21 20 20 19 20 17 16 12
4 4 5 6 6 7 7 7 8 8 8 7 7 7 8 9 8 8 9 11 13 16 18 18 16 17 16 18 17 17 17 19 19 20 20 18 16 20 20 20 20 19 19 15 13 14 14
4 4 4 5 5 6 7 7 7 7 7 7 7 6 9 8 8 8 9 10 12 15 16 15 15 15 17 17 18 17 18 19 19 19 18 18 14 17 20 17 17 18 17 17 16 14 12
4 4 4 4 5 5 6 6 7 7 7 6 7 5 8 8 7 8 9 10 12 14 15 15 16 15 15 17 16 15 16 18 19 18 17 18 15 14 17 20 20 19 18 18 12 14 11
3 3 4 4 4 5 5 6 6 7 6 6 6 5 7 8 7 8 9 11 11 12 14 14 14 15 15 15 14 14 16 18 17 18 17 17 14 12 14 16 18 18 18 18 16 12 12
3 3 3 4 4 4 5 5 6 6 6 6 6 6 6 6 7 8 9 10 10 13 12 13 14 13 13 14 15 13 14 15 17 16 15 17 15 13 11 14 16 16 17 16 15 11 11
3 3 3 3 3 4 4 5 5 6 6 6 5 5 7 6 6 7 8 10 10 10 13 13 13 12 13 12 14 14 15 15 16 14 16 15 13 15 14 14 15 15 14 14 14 14 12
3 3 3 3 3 3 4 4 5 5 5 6 4 5 7 8 8 7 7 8 10 11 12 12 12 11 13 12 13 13 15 14 14 14 14 15 11 12 10 14 14 13 12 13 14 14 13
3 3 3 3 3 3 3 3 4 5 5 6 4 5 5 7 8 7 8 9 10 11 12 13 10 10 8 10 14 14 15 14 14 13 12 13 11 11 11 14 14 11 10 12 14 15 14
2 2 2 3 3 3 3 3 3 4 4 5 4 6 5 7 8 9 10 9 10 10 10 11 10 9 10 11 12 14 14 15 15 15 14 12 12 11 10 12 9 11 16 16 15 15 15
2 2 2 2 3 3 3 3 3 3 4 4 4 6 5 6 8 10 10 10 10 11 8 9 9 9 8 9 9 10 10 12 13 14 14 14 12 10 10 10 12 13 15 15 15 14 16
2 2 2 2 2 2 2 3 3 3 3 3 4 5 6 6 7 11 10 11 9 8 6 7 9 9 8 7 8 8 9 11 12 13 14 13 12 9 8 9 9 11 15 16 15 10 13
2 2 2 2 2 2 2 2 2 3 3 3 3 3 5 5 6 10 9 9 8 7 6 7 8 9 9 6 8 9 9 13 11 11 11 10 10 10 9 9 10 14 16 15 11 10 13
2 2 2 2 2 2 2 2 2 2 2 3 4 4 5 4 6 8 11 7 7 7 6 7 6 8 8 7 8 9 9 10 11 12 12 11 10 9 9 9 8 14 14 12 11 12 12
2 2 2 1 2 2 2 2 2 2 2 3 4 4 4 5 5 6 8 9 7 9 7 8 9 9 9 8 8 9 9 9 10 10 13 10 10 10 11 8 11 13 12 13 12 12 13

GFSGBSN_925_temp_156.txt.gz
Temp
14 14 14 14 14 14 14 14 14 14 14 14 14 14 14 14 14 14 14 15 15 15 15 14 14 15 16 15 17 23 23 24 24 24 24 22 21 21 20 20 21 24 24 23 22 23 24
13 13 14 14 14 14 14 14 14 14 14 14 14 14 14 15 14 14 15 15 15 15 15 14 14 13 15 15 21 22 22 23 24 24 23 22 22 22 21 21 22 22 22 21 22 23 23
13 13 14 14 14 14 14 14 14 14 14 14 13 14 13 13 14 14 14 15 15 16 15 14 14 12 13 15 22 21 21 21 23 24 23 23 23 21 21 21 22 23 22 21 22 22 22
12 13 13 13 13 13 13 13 13 13 14 13 13 13 13 13 13 13 14 15 16 16 16 14 14 12 13 20 19 19 22 22 23 24 24 24 23 22 21 21 21 22 21 20 22 22 22
12 12 12 13 12 12 13 13 13 14 13 13 13 13 12 13 13 13 14 15 16 15 15 13 14 13 14 20 20 23 22 22 23 23 24 24 23 20 21 20 18 19 19 20 21 21 22
11 11 11 11 11 11 11 11 11 11 12 12 11 11 12 13 13 13 14 15 16 15 14 12 13 13 16 20 21 23 24 23 22 22 22 21 19 18 17 17 18 19 20 21 21 23 22
10 10 11 10 10 10 10 10 11 11 11 11 11 11 12 12 13 12 14 15 14 14 14 15 16 15 17 19 20 21 24 23 22 21 19 20 18 17 18 18 20 20 20 20 19 20 22
10 10 10 10 11 10 10 10 10 10 11 10 10 11 11 12 13 13 13 12 15 14 13 16 16 17 18 18 18 20 21 21 20 18 20 18 17 19 20 20 20 20 20 19 19 21 20
9 9 10 10 10 10 10 10 10 10 10 10 10 10 10 11 12 12 12 13 15 14 13 15 17 17 17 18 17 18 20 20 19 18 18 17 19 21 21 20 21 20 20 20 20 20 20
9 9 9 9 9 9 9 10 10 10 10 9 10 10 10 10 11 11 11 14 15 14 11 14 17 17 18 18 18 20 20 19 19 19 19 18 20 20 20 20 20 19 21 21 20 18 17
8 8 8 8 9 9 9 9 9 9 9 9 9 9 10 10 9 10 12 13 14 15 11 18 19 20 19 18 20 21 21 19 18 19 19 18 20 20 19 20 21 20 20 20 20 18 17
7 8 8 8 8 9 9 9 9 9 9 9 9 9 9 9 9 11 12 13 14 12 12 16 19 19 18 18 19 20 20 20 20 19 18 19 20 20 21 21 22 20 20 19 19 17 14
7 7 7 8 8 8 8 8 8 9 9 9 8 8 8 9 9 10 11 12 10 11 16 18 18 18 18 18 18 19 19 18 17 17 17 18 19 19 20 20 20 20 17 14 14 13 15
6 6 6 7 7 8 8 8 8 8 8 8 8 8 8 8 10 10 11 10 11 14 14 17 18 17 17 18 17 17 17 16 17 17 16 16 14 18 19 20 19 18 17 14 15 13 15
5 5 5 6 6 7 7 7 8 8 8 8 7 7 7 9 9 9 9 9 12 13 15 16 17 17 16 17 17 16 15 15 17 16 15 16 16 19 19 20 19 18 16 18 16 14 12
4 4 4 5 5 6 7 7 7 7 8 7 7 7 7 9 9 8 9 11 11 14 15 15 15 16 15 16 16 15 16 18 18 18 18 17 16 18 19 19 19 18 18 15 11 13 14
4 4 4 4 4 5 6 6 7 7 7 7 7 6 9 8 8 7 9 10 12 14 14 14 14 14 15 14 16 16 16 17 18 18 17 16 14 17 19 17 17 17 16 16 16 12 12
3 3 3 3 4 4 5 6 6 7 6 6 6 6 7 8 7 8 8 10 12 13 14 14 14 14 14 14 14 16 15 17 17 18 17 17 13 13 17 19 18 17 17 16 12 14 11
3 3 3 3 3 4 5 5 5 6 6 5 5 6 7 7 7 8 10 10 11 11 12 13 13 14 14 13 13 13 15 17 18 17 16 16 13 12 13 15 18 17 17 17 14 11 12
3 3 3 3 3 3 4 5 5 6 5 5 5 6 6 6 6 8 9 9 10 11 11 11 12 12 12 12 14 11 14 15 14 16 15 15 14 13 13 14 15 14 16 16 13 9 10
3 3 3 3 3 3 4 4 5 5 5 5 4 4 6 6 6 7 8 9 9 9 11 11 11 11 11 10 11 12 14 14 15 14 15 14 13 14 14 14 15 15 14 14 14 13 12
3 3 3 3 3 3 3 4 4 4 5 5 3 5 5 5 7 7 7 8 8 9 10 11 10 11 11 11 12 11 12 11 12 13 14 13 11 11 10 13 14 13 11 12 13 13 13
3 3 3 3 3 3 3 3 4 4 4 5 4 4 5 6 6 6 7 8 9 9 10 10 10 9 10 11 11 9 9 11 11 11 11 12 10 10 12 14 14 12 6 10 13 14 14
3 3 3 3 3 3 3 3 3 3 3 4 4 4 4 6 6 7 9 8 8 8 9 10 9 10 10 9 8 8 9 10 11 12 13 11 11 10 10 11 10 12 13 14 14 15 14
2 3 2 2 2 2 2 3 3 3 3 3 3 4 4 5 7 7 7 8 8 9 9 9 9 9 8 9 7 8 8 9 12 13 11 12 11 10 10 11 11 12 13 14 14 13 14
2 2 2 2 2 2 2 2 2 3 3 3 3 4 4 5 5 8 8 8 8 7 7 8 8 7 8 7 7 9 9 9 11 12 12 12 12 10 8 9 9 10 14 15 14 10 12
2 2 2 2 2 2 2 2 2 2 3 3 3 3 3 3 5 7 7 7 8 6 7 6 7 7 8 6 7 7 8 10 10 10 10 10 9 9 8 9 9 12 14 15 11 10 11
2 2 2 2 2 2 2 2 2 2 2 2 3 3 3 2 4 7 8 7 6 6 6 6 6 6 6 7 7 6 9 10 10 11 11 11 10 8 8 8 8 12 13 11 11 10 11
2 2 1 1 1 1 2 2 2 2 2 2 2 3 4 3 3 4 5 6 8 8 6 6 7 7 7 7 7 8 9 9 10 9 12 10 9 8 9 8 10 11 11 12 11 11 10